Location: M�nchen
(48.1404°N, 11.6043°E)
Time: 10:00:09
(UTC+02:00)

ISS - Pass Details

Date: 11 February 2018
Orbit: 402 x 406 km, 51.6° (Epoch: 18 June)

Event Time Altitude Azimuth Distance (km) Brightness Sun altitude
Rises 19:16:55 0° 285° (WNW) 2,320 1.5 -18.4°
Reaches altitude 10° 19:19:32 10° 263° (W) 1,457 0.2 -18.9°
Maximum altitude 19:21:38 16° 223° (SW) 1,147 -1.0 -19.2°
Drops below altitude 10° 19:23:43 10° 183° (S) 1,453 -1.0 -19.6°
Enters shadow 19:24:05 - 178° (S) 1,556 -0.9 -19.6°
